Tracking 19817 objects as of 20-Aug-2019
HD Live streaming from Space Station
objects crossing your sky now

CZ-3B DEB

Track CZ-3B DEB now!


NORAD ID: 39337
Int'l Code: 2010-042J
Perigee: 692.1 km
Apogee: 42,994.0 km
Inclination: 25.5 °
Period: 786.1 minutes
Semi major axis: 28214 km
RCS: 0.027 m2 (small)
Launch date: September 4, 2010
Source: People's Republic of China (PRC)
Launch site: Xichang Space Center, China (XSC)

Note: This is SATELLITE DEBRIS
aabbcc
Your satellite tracking list
Your tracking list is empty




NASA's NSSDC Master Catalog

Two Line Element Set (TLE):
1 39337U 10042J   19228.17720658 -.00000136 +00000-0 +23395-2 0  9995
2 39337 025.5073 064.3414 7496613 236.1732 030.2822 01.83191345036855
Source of the keplerian elements: AFSPC